Weather reports worldwide

Advertisment
Dresden-Klotzsche, Germany (10488): temperature & dewpoint: 08.07.2020 11:00:00 - 14.07.2020 11:00:00 (CEST)Dresden-Klotzsche, Germany (10488): temperature 5cm & temperature -5cm: 08.07.2020 11:00:00 - 14.07.2020 11:00:00 (CEST)Dresden-Klotzsche, Germany (10488): temperature -20cm & temperature -100cm: 08.07.2020 11:00:00 - 14.07.2020 11:00:00 (CEST)Dresden-Klotzsche, Germany (10488): wind speed & gusts: 08.07.2020 11:00:00 - 14.07.2020 11:00:00 (CEST)Dresden-Klotzsche, Germany (10488): wind direction: 08.07.2020 11:00:00 - 14.07.2020 11:00:00 (CEST)Dresden-Klotzsche, Germany (10488): reduced air pressure: 08.07.2020 11:00:00 - 14.07.2020 11:00:00 (CEST)Dresden-Klotzsche, Germany (10488): visibility: 08.07.2020 11:00:00 - 14.07.2020 11:00:00 (CEST)Dresden-Klotzsche, Germany (10488): sunshine duration: 08.07.2020 11:00:00 - 14.07.2020 11:00:00 (CEST)Dresden-Klotzsche, Germany (10488): precipitation: 08.07.2020 11:00:00 - 14.07.2020 11:00:00 (CEST)
Date & Time tt [°C] td [°C] tt 5cm [°C] tt -5cm [°C] tt -20cm [°C] tt -100cm [°C] ff [km/h] ff [kn] fx [km/h] fx [kn] dd ppp [hPa] vv [km] sd [min] rr [mm]
14.07.2020 11:00:00 24,0 6,3 28,8 25,1 20,3 17,6 11 6 21 11 S 1015,9 60 60 0,0
14.07.2020 10:00:00 22,9 7,9 26,0 22,7 20,0 17,6 13 7 19 10 S 1016,4 55 60 0,0
14.07.2020 09:00:00 19,9 7,3 22,1 20,5 20,0 17,6 9 5 21 11 SSE 1017,1 10 60 0,0
14.07.2020 08:00:00 17,4 7,6 18,6 18,8 20,1 17,6 11 6 21 11 SSE 1017,6 10 60 0,0
14.07.2020 07:00:00 15,8 7,2 15,7 17,6 20,3 17,6 12 6 16 9 SSE 1017,9 55 60 0,0
14.07.2020 06:00:00 14,6 6,7 13,4 17,3 20,7 17,6 11 6 18 10 SE 1018,1 55 26 0,0
14.07.2020 05:00:00 14,7 6,7 13,3 17,7 21,1 17,6 13 7 18 10 SSE 1018,3 10 0 0,0
14.07.2020 04:00:00 14,9 6,7 13,5 18,2 21,5 17,5 13 7 16 9 SSE 1018,5 10 0 0,0
14.07.2020 03:00:00 15,3 6,9 13,7 18,8 21,9 17,5 13 7 16 9 SE 1018,9 55 0 0,0
14.07.2020 02:00:00 16,2 7,0 14,7 19,6 22,4 17,5 14 7 18 10 SSE 1019,0 55 0 0,0
14.07.2020 01:00:00 15,7 7,8 14,4 20,4 22,8 17,5 14 7 16 9 S 1019,3 55 0 0,0
14.07.2020 00:00:00 16,7 7,4 15,0 21,6 23,3 17,5 11 6 15 8 S 1019,6 10 0 0,0
13.07.2020 23:00:00 17,8 7,2 16,1 22,9 23,8 17,5 9 5 18 10 SSE 1019,7 10 0 0,0
13.07.2020 22:00:00 19,6 6,8 17,7 24,7 24,2 17,5 8 4 16 9 ESE 1019,7 10 4 0,0
13.07.2020 21:00:00 21,5 6,0 20,0 27,0 24,4 17,5 9 5 15 8 ESE 1019,3 10 60 0,0
13.07.2020 20:00:00 23,0 4,9 24,8 29,1 24,4 17,5 9 5 21 11 E 1019,2 65 60 0,0
13.07.2020 19:00:00 24,0 5,2 27,1 30,7 24,1 17,5 9 5 18 10 E 1019,4 10 60 0,0
13.07.2020 18:00:00 24,6 4,0 28,6 31,2 23,6 17,5 8 4 18 10 - 1019,9 10 60 0,0
13.07.2020 17:00:00 23,9 4,4 30,0 31,3 23,0 17,5 9 5 18 10 N 1020,6 70 60 0,0
13.07.2020 16:00:00 23,9 4,8 30,3 30,7 22,2 17,5 13 7 22 12 NNE 1021,2 10 60 0,0
13.07.2020 15:00:00 23,4 4,5 31,4 29,9 21,4 17,5 9 5 24 13 - 1021,8 10 60 0,0
13.07.2020 14:00:00 21,7 4,1 27,8 28,5 20,6 17,5 8 4 18 10 ESE 1022,8 70 45 0,0
13.07.2020 13:00:00 21,0 3,9 26,9 27,8 19,7 17,5 5 3 16 9 - 1023,6 10 60 0,0
13.07.2020 12:00:00 20,4 4,1 27,7 25,7 18,9 17,5 13 7 21 11 N 1024,3 70 60 0,0
13.07.2020 11:00:00 19,2 3,6 25,8 23,4 18,2 17,5 6 4 16 9 E 1024,8 70 60 0,0
13.07.2020 10:00:00 18,5 4,3 23,7 20,8 17,8 17,5 4 2 15 8 - 1025,1 10 60 0,0
13.07.2020 09:00:00 17,0 5,1 20,1 18,1 17,7 17,5 4 2 9 5 SSE 1025,8 70 60 0,0
13.07.2020 08:00:00 12,8 5,6 14,4 15,7 17,8 17,5 2 1 15 8 - 1026,1 10 60 0,0
13.07.2020 07:00:00 10,8 5,8 11,1 14,2 18,0 17,5 9 5 14 8 SSE 1026,3 60 60 0,0
13.07.2020 06:00:00 9,0 5,6 8,2 13,7 18,4 17,5 0 0 16 9 N 1026,7 10 25 0,0
13.07.2020 05:00:00 9,1 6,1 7,8 14,1 18,7 17,5 11 6 13 7 S 1026,8 55 0 0,0
13.07.2020 04:00:00 10,3 6,0 7,8 14,7 19,1 17,5 9 5 11 6 S 1026,9 50 0 0,0
13.07.2020 03:00:00 11,9 6,0 8,7 15,3 19,5 17,5 8 4 9 5 S 1026,8 55 0 0,0
13.07.2020 02:00:00 13,0 5,5 6,6 16,2 19,9 17,5 4 2 11 6 SSE 1026,7 10 0 0,0
13.07.2020 01:00:00 13,4 5,5 9,8 17,1 20,4 17,5 9 5 13 7 ENE 1026,7 55 0 0,0
13.07.2020 00:00:00 14,3 4,7 10,6 18,0 20,8 17,5 8 4 11 6 N 1026,5 55 0 0,0
12.07.2020 23:00:00 15,8 4,8 10,8 19,3 21,2 17,5 2 1 8 4 - 1026,3 10 0 0,0
12.07.2020 22:00:00 16,7 4,7 14,1 20,7 21,5 17,5 5 3 11 6 N 1026,5 10 7 0,0
12.07.2020 21:00:00 18,2 4,9 16,3 22,6 21,6 17,5 6 3 15 8 N 1025,8 60 40 0,0
12.07.2020 20:00:00 19,8 3,0 20,3 23,9 21,7 17,5 12 6 25 14 NNW 1025,6 60 51 0,0
12.07.2020 19:00:00 20,5 3,7 22,9 24,5 21,6 17,5 16 9 27 15 NNW 1025,4 10 28 0,0
12.07.2020 18:00:00 20,8 3,8 24,2 25,8 21,3 17,5 15 8 29 16 NNW 1025,5 70 43 0,0
12.07.2020 17:00:00 21,3 4,1 25,7 25,7 21,0 17,5 13 7 26 14 WNW 1025,7 70 37 0,0
12.07.2020 16:00:00 19,3 4,9 21,2 25,8 20,5 17,5 16 9 27 15 N 1026,2 10 16 0,0
12.07.2020 15:00:00 19,7 5,3 22,5 25,8 20,0 17,5 12 7 35 19 WNW 1026,4 70 35 0,0
12.07.2020 14:00:00 18,8 5,0 21,8 24,1 19,6 17,5 13 7 24 13 NNW 1026,8 10 3 0,0
12.07.2020 13:00:00 18,0 5,6 20,0 24,1 19,0 17,5 13 7 31 17 WNW 1026,9 70 35 0,0
12.07.2020 12:00:00 17,1 6,2 19,1 23,1 18,5 17,5 11 6 21 11 WNW 1027,1 65 25 0,0
12.07.2020 11:00:00 17,1 7,6 20,6 21,6 17,9 17,5 9 5 17 9 NW 1027,0 10 34 0,0
12.07.2020 10:00:00 16,8 7,8 21,3 19,5 17,6 17,5 9 5 15 8 - 1027,2 10 37 0,0
12.07.2020 09:00:00 14,6 7,3 17,7 17,5 17,5 17,5 5 3 15 8 WNW 1027,3 10 55 0,0
12.07.2020 08:00:00 13,5 7,0 15,0 15,2 17,6 17,5 9 5 15 8 W 1027,1 10 51 0,0
12.07.2020 07:00:00 10,6 6,5 10,7 13,7 17,8 17,5 5 3 9 5 WSW 1026,9 10 36 0,0
12.07.2020 06:00:00 9,3 5,8 6,7 13,5 18,1 17,5 5 3 8 4 SW 1026,5 50 11 0,0
12.07.2020 05:00:00 9,7 6,4 7,7 13,9 18,5 17,5 6 3 9 5 SSW 1026,1 50 0 0,0
12.07.2020 04:00:00 10,5 6,2 7,6 13,9 18,9 17,5 6 3 9 5 WSW 1025,9 50 0 0,0
12.07.2020 03:00:00 10,3 5,6 5,5 14,6 19,3 17,5 5 3 8 4 SW 1025,6 50 0 0,0
12.07.2020 02:00:00 11,2 5,7 5,8 15,4 19,8 17,5 4 2 9 5 - 1025,5 10 0 0,0
12.07.2020 01:00:00 12,7 6,1 6,4 16,2 20,2 17,5 4 2 8 4 - 1025,3 10 0 0,0
12.07.2020 00:00:00 14,1 6,4 6,9 17,3 20,7 17,5 4 2 5 3 SSW 1024,9 10 0 0,0
11.07.2020 23:00:00 14,0 6,4 7,8 18,8 21,1 17,5 4 2 8 4 NW 1024,6 10 0 0,0
11.07.2020 22:00:00 15,1 6,1 10,7 20,5 21,5 17,5 6 4 10 5 NNW 1024,2 60 5 0,0
11.07.2020 21:00:00 17,0 5,2 14,5 22,3 21,6 17,5 5 3 25 13 NNW 1023,7 70 45 0,0
11.07.2020 20:00:00 18,9 4,6 19,6 23,9 21,7 17,5 16 8 24 13 NW 1023,1 70 57 0,0
11.07.2020 19:00:00 19,1 5,3 21,8 24,4 21,6 17,5 15 8 25 13 NNW 1022,9 70 12 0,0
11.07.2020 18:00:00 19,0 4,2 21,0 25,9 21,3 17,5 13 7 26 14 NNW 1022,6 10 31 0,0
11.07.2020 17:00:00 19,4 4,4 23,4 26,2 20,9 17,5 13 7 28 15 NNW 1022,5 70 47 0,0
11.07.2020 16:00:00 18,6 4,8 21,0 24,9 20,5 17,5 15 8 26 14 NW 1022,6 10 17 0,0
11.07.2020 15:00:00 18,3 4,9 20,4 24,7 20,1 17,5 11 6 28 15 NW 1022,6 10 7 0,0
11.07.2020 14:00:00 19,2 4,5 23,7 25,0 19,5 17,5 13 7 31 17 NW 1022,2 10 39 0,0
11.07.2020 13:00:00 17,6 3,9 21,2 23,5 18,9 17,5 11 6 25 14 - 1022,3 10 32 0,0
11.07.2020 12:00:00 16,8 5,5 20,5 22,1 18,4 17,5 11 6 26 14 WNW 1022,3 10 31 0,0
11.07.2020 11:00:00 15,8 6,0 21,0 20,0 18,1 17,5 10 6 18 10 WNW 1022,2 35 50 0,0
11.07.2020 10:00:00 13,7 7,5 14,8 17,6 18,1 17,5 11 6 18 10 NW 1022,0 35 13 0,0
11.07.2020 09:00:00 12,6 8,6 13,2 16,2 18,2 17,5 11 6 18 10 N 1021,9 30 0 0,0
11.07.2020 08:00:00 12,3 9,6 12,9 15,7 18,3 17,5 8 4 15 8 NNW 1021,5 10 0 0,0
11.07.2020 07:00:00 12,0 9,9 11,9 15,5 18,6 17,5 5 3 8 4 NW 1021,1 30 0 0,0
11.07.2020 06:00:00 11,8 9,9 11,4 15,6 18,8 17,5 4 2 9 5 NW 1020,5 10 0 0,0
11.07.2020 05:00:00 11,8 9,8 10,9 16,0 19,1 17,5 8 4 13 7 NNW 1019,9 10 0 0,0
11.07.2020 04:00:00 12,6 10,3 11,7 16,7 19,4 17,5 8 4 13 7 NNW 1019,2 10 0 0,0
11.07.2020 03:00:00 13,3 10,0 12,8 17,2 19,6 17,5 8 4 16 9 NNW 1019,4 10 0 0,0
11.07.2020 02:00:00 14,2 10,5 13,9 17,6 19,9 17,5 8 4 16 9 WNW 1019,2 10 0 0,0
11.07.2020 01:00:00 14,5 10,6 13,9 18,0 20,2 17,5 8 4 21 11 WNW 1018,3 10 0 0,0
11.07.2020 00:00:00 14,8 10,4 14,4 18,7 20,6 17,5 14 7 25 14 WNW 1017,5 50 0 0,0
10.07.2020 23:00:00 15,4 10,6 15,0 19,5 20,9 17,5 12 6 26 14 W 1016,9 50 0 0,0
10.07.2020 22:00:00 16,0 10,7 15,7 20,6 21,2 17,5 18 10 45 24 NW 1015,6 10 0 0,0
10.07.2020 21:00:00 17,7 11,2 17,4 22,0 21,3 17,5 24 13 60 32 NW 1013,9 10 0 0,0
10.07.2020 20:00:00 20,9 11,8 21,0 23,7 21,4 17,5 29 16 57 31 WNW 1011,5 10 5 0,0
10.07.2020 19:00:00 23,7 12,4 23,8 24,5 21,3 17,5 21 12 46 25 WNW 1010,1 50 22 0,0
10.07.2020 18:00:00 23,7 12,5 24,2 24,1 21,4 17,6 26 14 48 26 WNW 1009,8 10 2 0,0
10.07.2020 17:00:00 25,3 12,3 25,0 24,6 21,3 17,6 22 12 53 28 W 1009,1 10 0 0,0
10.07.2020 16:00:00 26,4 10,6 26,4 25,4 21,2 17,6 22 12 51 27 W 1008,2 10 0 0,0
10.07.2020 15:00:00 27,0 13,4 27,3 26,3 20,9 17,6 24 13 46 25 W 1007,2 10 0 0,0
10.07.2020 14:00:00 28,3 12,9 28,8 27,1 20,3 17,6 27 14 59 32 SW 1006,7 50 5 0,0
10.07.2020 13:00:00 29,0 11,9 29,8 27,3 19,6 17,6 28 15 52 28 SW 1006,4 10 37 0,0
10.07.2020 12:00:00 29,1 13,1 32,2 24,9 19,0 17,6 28 15 40 21 SSW 1006,6 55 15 0,0
10.07.2020 11:00:00 27,8 13,8 30,3 24,5 18,4 17,6 24 13 34 18 S 1007,1 55 56 0,0
10.07.2020 10:00:00 23,8 14,6 24,1 21,3 18,1 17,6 16 9 29 16 S 1008,1 10 23 0,0
10.07.2020 09:00:00 21,7 15,0 22,6 19,5 17,9 17,7 21 11 29 16 SSE 1008,8 50 22 0,0
10.07.2020 08:00:00 19,5 14,6 20,0 18,0 17,8 17,7 16 9 26 14 SSE 1009,5 10 36 0,0
10.07.2020 07:00:00 17,8 14,4 17,9 16,7 17,9 17,7 18 10 27 15 SSE 1010,2 50 15 0,0
10.07.2020 06:00:00 15,9 14,2 15,3 16,2 18,0 17,7 16 8 24 13 S 1011,1 60 0 0,0
10.07.2020 05:00:00 16,2 14,5 15,4 16,4 18,2 17,7 11 6 22 12 S 1011,6 10 0 0,0
10.07.2020 04:00:00 16,4 14,7 15,3 16,6 18,4 17,7 9 5 18 10 S 1012,1 10 0 0,0
10.07.2020 03:00:00 16,9 14,9 15,6 16,9 18,6 17,7 8 4 15 8 SSW 1012,7 10 0 0,0
10.07.2020 02:00:00 17,1 15,2 15,6 17,2 18,8 17,8 5 3 13 7 S 1012,7 10 0 0,0
10.07.2020 01:00:00 17,4 15,0 14,8 17,8 18,9 17,8 5 3 9 5 SSE 1012,6 55 0 0,0
10.07.2020 00:00:00 18,5 15,5 16,9 18,6 19,1 17,8 5 3 31 17 N 1012,6 60 0 0,0
09.07.2020 23:00:00 21,1 14,2 19,9 19,1 19,2 17,8 9 5 17 9 SSW 1012,1 60 0 0,0
09.07.2020 22:00:00 21,9 13,9 20,5 19,8 19,2 17,8 11 6 22 12 SSW 1011,5 10 0 0,0
09.07.2020 21:00:00 23,2 13,3 22,1 20,5 19,2 17,9 11 6 34 18 SW 1011,2 10 10 0,0
09.07.2020 20:00:00 24,2 12,8 23,7 20,9 19,1 17,9 21 11 39 21 WSW 1011,1 60 19 0,0
09.07.2020 19:00:00 24,2 14,0 24,1 21,0 18,9 17,9 15 8 41 22 WSW 1011,3 10 5 0,0
09.07.2020 18:00:00 23,7 14,4 24,1 21,5 18,6 17,9 17 9 28 15 WSW 1011,6 45 16 0,0
09.07.2020 17:00:00 22,4 15,2 23,2 21,2 18,3 17,9 12 6 21 11 WSW 1012,9 30 10 0,2
09.07.2020 16:00:00 21,3 14,9 21,8 20,2 18,1 18,0 13 7 25 14 W 1013,5 10 0 0,0
09.07.2020 15:00:00 19,9 15,1 20,2 18,9 17,9 18,0 8 4 18 10 SW 1013,9 30 0 0,0
09.07.2020 14:00:00 18,3 14,5 18,4 19,2 17,7 18,0 13 7 22 12 S 1014,3 30 0 0,0
09.07.2020 13:00:00 18,4 14,7 18,4 18,9 17,5 18,0 13 7 25 14 S 1014,7 30 0 0,3
09.07.2020 12:00:00 18,4 12,7 19,1 18,5 17,2 18,1 16 9 24 13 SSW 1015,2 40 0 0,0
09.07.2020 11:00:00 17,6 12,1 18,7 18,1 16,9 18,1 15 8 24 13 S 1015,5 45 0 0,0
09.07.2020 10:00:00 16,4 12,0 18,0 16,8 16,7 18,1 11 6 15 8 S 1016,3 10 0 0,0
09.07.2020 09:00:00 14,5 11,6 14,7 15,6 16,6 18,1 9 5 13 7 S 1016,8 10 0 0,0
09.07.2020 08:00:00 13,5 11,1 13,5 14,5 16,6 18,1 11 6 14 7 SSE 1016,9 10 0 0,0
09.07.2020 07:00:00 12,2 10,7 12,1 13,6 16,7 18,1 4 2 16 9 - 1017,4 10 0 0,0
09.07.2020 06:00:00 11,5 10,3 11,2 13,2 16,9 18,2 11 6 18 10 S 1017,2 10 0 0,0
09.07.2020 05:00:00 11,2 10,2 10,7 13,1 17,0 18,2 10 5 20 11 S 1017,6 40 0 0,0
09.07.2020 04:00:00 11,8 10,0 10,7 13,4 17,2 18,2 11 6 14 7 S 1017,3 40 0 0,0
09.07.2020 03:00:00 11,9 10,3 11,0 13,4 17,5 18,2 9 5 15 8 SSW 1017,6 10 0 0,0
09.07.2020 02:00:00 11,7 10,3 10,7 13,4 17,8 18,2 8 4 15 8 S 1017,7 10 0 0,0
09.07.2020 01:00:00 11,8 10,3 10,5 13,7 18,1 18,2 5 3 16 9 S 1017,7 10 0 0,0
09.07.2020 00:00:00 11,9 10,1 10,2 14,3 18,4 18,2 10 5 12 6 S 1018,0 35 0 0,0
08.07.2020 23:00:00 12,6 10,7 10,2 15,1 18,7 18,3 8 4 9 5 SW 1017,8 10 0 0,0
08.07.2020 22:00:00 12,9 11,0 10,8 16,2 18,9 18,3 5 3 8 4 WSW 1017,6 10 0 0,0
08.07.2020 21:00:00 14,4 12,1 13,5 17,1 19,0 18,3 2 1 8 4 - 1017,0 10 0 0,0
08.07.2020 20:00:00 14,3 12,5 14,3 17,4 19,1 18,3 5 3 14 8 WNW 1016,8 10 0 0,0
08.07.2020 19:00:00 14,8 12,2 15,2 17,7 19,1 18,3 9 5 22 12 NW 1016,6 10 2 0,0
08.07.2020 18:00:00 15,6 11,2 14,7 18,4 19,1 18,3 16 9 25 14 W 1016,2 30 0 0,0
08.07.2020 17:00:00 15,2 12,7 15,7 17,9 19,2 18,3 9 5 18 10 W 1016,3 10 0 0,1
08.07.2020 16:00:00 14,1 12,7 15,2 17,6 19,2 18,3 7 4 13 7 W 1016,3 10 0 0,8
08.07.2020 15:00:00 14,0 12,0 14,4 18,1 19,3 18,3 8 4 16 9 NNW 1016,1 10 0 0,0
08.07.2020 14:00:00 14,1 11,1 13,8 18,6 19,2 18,3 7 4 14 8 SW 1016,0 20 0 0,6
08.07.2020 13:00:00 14,5 11,3 14,7 18,9 19,1 18,3 3 2 8 4 NNE 1015,9 17 0 0,2
08.07.2020 12:00:00 13,3 10,2 13,5 17,9 19,1 18,4 5 3 9 5 - 1016,2 10 0 0,7
08.07.2020 11:00:00 13,3 9,9 13,1 17,4 19,1 18,4 5 3 8 4 SE 1016,3 10 0 0,4

tt = temperature
td = dewpoint
tt 5cm = temperature 5cm
tt -5cm = temperature -5cm
tt -20cm = temperature -20cm
tt -100cm = temperature -100cm
ff = wind speed
fx = gusts
dd = wind direction
ppp = reduced air pressure
vv = visibility
sd = sunshine duration
rr = precipitation

Next stations